Flag for Pakistan Weather past 2 weeks in Karachi, Pakistan

Now
79 °F

Passing clouds.


Feels Like: 82 °F
Forecast: 80 / 89 °F
Wind: 5 mph from Southwest

Location: Karachi Airport

Current Time: Oct 1, 2014 at 4:58:10 AM

Latest Report: Oct 1, 2014 at 3:55 AM


Visibility: 4 mi

Pressure: 29.86 "Hg

Humidity: 79%

Dew point: 72 °F

Location of KarachiLocation

Historic Weather in Karachi — Graph

°F

Karachi temperature yesterday

Maximum temperature yesterday: 88 °F (at 12:25 PM)
Minimum temperature yesterday: 81 °F (at 12:25 AM)
Average temperature yesterday: 83 °F

Past Weeks' High & Low Weather Summary

 TemperatureHumidityPressure
High91 °F (Sep 16, 12:55 PM)84% (Sep 26, 6:55 AM)29.92 "Hg (Sep 26, 6:55 AM)
Low79 °F (Sep 26, 5:25 AM)26% (Sep 27, 2:55 PM)29.62 "Hg (Sep 17, 2:55 PM)
Average84 °F66%29.78 "Hg
* Reported Sep 16 3:25 AM — Oct 1 3:55 AM, Karachi, Weather by CustomWeather, © 2014

Note: Actual official high and low records may vary slightly from our data, if they occured in-between our weather recording intervals... More about our weather records

Advertising

Karachi weather history for previous 24 hours

 ConditionsComfort  
Time TempWeatherWind HumidityBarometerVisibility
3:55 AM
Oct 1
79 °FPassing clouds.5 mph79%29.86 "Hg4 mi
3:25 AM79 °FPassing clouds.6 mph79%29.86 "Hg4 mi
2:55 AM79 °FPassing clouds.6 mph79%29.86 "Hg4 mi
2:25 AM79 °FPassing clouds.5 mph79%29.86 "Hg4 mi
1:55 AM79 °FPassing clouds.8 mph79%29.86 "Hg4 mi
1:25 AM79 °FPassing clouds.7 mph79%29.86 "Hg4 mi
12:55 AM79 °FPassing clouds.12 mph79%29.86 "Hg4 mi
12:25 AM81 °FPassing clouds.10 mph79%29.86 "Hg4 mi
11:55 PM
Sep 30
81 °FPassing clouds.12 mph79%29.86 "Hg4 mi
11:25 PM81 °FPassing clouds.9 mph74%29.86 "Hg4 mi
10:55 PM81 °FPassing clouds.9 mph79%29.86 "Hg4 mi
10:25 PM81 °FPassing clouds.10 mph79%29.86 "Hg4 mi
9:55 PM81 °FPassing clouds.8 mph79%29.86 "Hg4 mi
9:25 PM82 °FPassing clouds.12 mph74%29.86 "Hg4 mi
8:55 PM82 °FPassing clouds.12 mph74%29.86 "Hg4 mi
8:25 PM82 °FPassing clouds.12 mph74%29.83 "Hg4 mi
7:55 PM82 °FPassing clouds.12 mph74%29.83 "Hg4 mi
7:25 PM82 °FPassing clouds.12 mph74%29.83 "Hg4 mi
6:55 PM82 °FPassing clouds.9 mph74%29.83 "Hg4 mi
6:25 PM84 °FPassing clouds.12 mph66%29.80 "Hg4 mi
5:55 PM84 °FScattered clouds.12 mph66%29.80 "Hg4 mi
5:25 PM84 °FScattered clouds.12 mph66%29.80 "Hg4 mi
4:55 PM86 °FScattered clouds.15 mph66%29.77 "Hg4 mi
4:25 PM86 °FScattered clouds.15 mph62%29.77 "Hg4 mi
2:55 PM88 °FBroken clouds.15 mph59%29.80 "Hg4 mi
2:25 PM88 °FBroken clouds.16 mph59%29.80 "Hg4 mi
1:55 PM88 °FBroken clouds.17 mph62%29.80 "Hg4 mi
1:25 PM88 °FBroken clouds.17 mph62%29.80 "Hg4 mi
12:55 PM88 °FBroken clouds.20 mph59%29.83 "Hg4 mi
12:25 PM88 °FBroken clouds.25 mph59%29.83 "Hg4 mi
11:55 AM86 °FBroken clouds.22 mph66%29.83 "Hg4 mi
11:25 AM86 °FBroken clouds.17 mph66%29.86 "Hg4 mi
10:55 AM84 °FBroken clouds.15 mph70%29.89 "Hg4 mi
10:25 AM84 °FBroken clouds.16 mph70%29.89 "Hg4 mi
9:55 AM84 °FBroken clouds.16 mph70%29.89 "Hg4 mi
9:25 AM84 °FPartly sunny.10 mph66%29.89 "Hg4 mi
8:55 AM82 °FPartly sunny.12 mph74%29.86 "Hg4 mi
8:25 AM82 °FPartly sunny.10 mph70%29.86 "Hg4 mi
7:55 AM82 °FPartly sunny.10 mph74%29.86 "Hg4 mi
7:25 AM81 °FPartly sunny.12 mph79%29.83 "Hg4 mi
6:55 AM81 °FPartly sunny.10 mph79%29.83 "Hg4 mi
6:25 AM81 °FPartly sunny.12 mph79%29.83 "Hg4 mi
4:55 AM81 °FPassing clouds.14 mph79%29.80 "Hg4 mi
4:25 AM81 °FPassing clouds.9 mph79%29.80 "Hg4 mi
Weather by CustomWeather, © 2014

See weather overviewHow to use our weather pages